Volver al catálogo

STARLINK-37466

ActivoComunicacionesSSO
NORAD 69038·PAYLOAD·🇺🇸 United States

Lanzado May 6, 2026 desde Vandenberg Space Force Base

Loading…

Próximos Pases (próximas 24 horas)

TLE

ActualizadoSource: CelesTrak SupGP

Época: Sep 14, 2026, 21:31 UTC

1 69038C 26101P   26257.89701389  .00055366  00000+0  17192-2 0  2576
2 69038  97.2849 111.5465 0001821  95.6762 349.0820 15.33400601    17

Sigue STARLINK-37466 en tiempo real con AllMySat

Download on the App Store